When you browse on this site, cookies collect data to enhance your experience and personalize the content and advertising you see.
Visit our Privacy Policy to learn more. By continuing to use the site, you agree to this use of cookies and data.
  • En España
  • Lista de países
  • Para 7 días
  • Temperatura del agua
  • Mapa Satelital
  • El tiempo en el mapa
  • Informadores
  • user-avatar
    Iniciar sesión

    Tiempo cada hora Cacalosúchil

    Hoy, 19 Diciembre, Miércoles

    Tiempo Temperatura Precipitaciones Viento Presión Humedad
    00:00 +15°C° 0 mm 1 mps 626 mmHg 75%
    01:00 +15°C° 0 mm 1 mps 626 mmHg 76%
    02:00 +15°C° 0 mm 1 mps 625 mmHg 77%
    03:00 +15°C° 0 mm 1 mps 625 mmHg 78%
    04:00 +14°C° 0 mm 1 mps 625 mmHg 78%
    05:00 +14°C° 0 mm 1 mps 625 mmHg 78%
    06:00 +15°C° 0 mm 1 mps 626 mmHg 73%
    07:00 +16°C° 0 mm 1 mps 626 mmHg 68%
    08:00 +19°C° 0 mm 1 mps 627 mmHg 63%
    09:00 +19°C° 0 mm 2 mps 627 mmHg 58%
    10:00 +21°C° 0 mm 3 mps 627 mmHg 52%
    11:00 +22°C° 0 mm 3 mps 627 mmHg 47%
    12:00 +23°C° 0 mm 4 mps 627 mmHg 45%
    13:00 +23°C° 0 mm 4 mps 626 mmHg 42%
    14:00 +23°C° 0 mm 4 mps 626 mmHg 40%
    15:00 +22°C° 0 mm 4 mps 625 mmHg 45%
    16:00 +21°C° 0 mm 3 mps 625 mmHg 50%
    17:00 +19°C° 0 mm 3 mps 625 mmHg 54%
    18:00 +18°C° 0 mm 2 mps 625 mmHg 57%
    19:00 +17°C° 0 mm 2 mps 626 mmHg 60%
    20:00 +16°C° 0 mm 1 mps 626 mmHg 63%
    21:00 +16°C° 0 mm 1 mps 626 mmHg 64%
    22:00 +15°C° 0 mm 1 mps 626 mmHg 65%
    23:00 +14°C° 0 mm 1 mps 626 mmHg 66%

    Mañana, 20 Diciembre, Jueves

    Tiempo Temperatura Precipitaciones Viento Presión Humedad
    00:00 +14°C° 0 mm 1 mps 626 mmHg 67%
    01:00 +14°C° 0 mm 1 mps 626 mmHg 68%
    02:00 +13°C° 0 mm 1 mps 625 mmHg 70%
    03:00 +13°C° 0 mm 1 mps 626 mmHg 70%
    04:00 +13°C° 0 mm 1 mps 626 mmHg 71%
    05:00 +12°C° 0 mm 1 mps 626 mmHg 72%
    06:00 +14°C° 0 mm 1 mps 627 mmHg 66%
    07:00 +15°C° 0 mm 1 mps 628 mmHg 60%
    08:00 +18°C° 0 mm 1 mps 629 mmHg 54%
    09:00 +20°C° 0 mm 1 mps 629 mmHg 46%
    10:00 +22°C° 0 mm 1 mps 630 mmHg 37%
    11:00 +24°C° 0 mm 1 mps 630 mmHg 29%
    12:00 +25°C° 0 mm 1 mps 630 mmHg 26%
    13:00 +26°C° 0 mm 1 mps 629 mmHg 24%
    14:00 +26°C° 0 mm 1 mps 629 mmHg 22%
    15:00 +24°C° 0 mm 1 mps 629 mmHg 26%
    16:00 +22°C° 0 mm 1 mps 628 mmHg 30%
    17:00 +20°C° 0 mm 2 mps 628 mmHg 34%
    18:00 +18°C° 0 mm 2 mps 628 mmHg 39%
    19:00 +17°C° 0 mm 2 mps 629 mmHg 43%
    20:00 +16°C° 0 mm 3 mps 629 mmHg 48%
    21:00 +14°C° 0 mm 3 mps 629 mmHg 52%
    22:00 +15°C° 0 mm 2 mps 629 mmHg 57%
    23:00 +14°C° 0 mm 2 mps 629 mmHg 61%

    Pasado mañana, 21 Diciembre, Viernes

    Tiempo Temperatura Precipitaciones Viento Presión Humedad
    00:00 +14°C° 0 mm 2 mps 628 mmHg 63%
    01:00 +13°C° 0 mm 2 mps 628 mmHg 64%
    02:00 +13°C° 0 mm 2 mps 627 mmHg 66%
    03:00 +12°C° 0 mm 2 mps 627 mmHg 66%
    04:00 +12°C° 0 mm 2 mps 627 mmHg 67%
    05:00 +10°C° 0 mm 2 mps 627 mmHg 67%
    06:00 +13°C° 0 mm 2 mps 628 mmHg 61%
    07:00 +14°C° 0 mm 2 mps 629 mmHg 55%
    08:00 +16°C° 0 mm 2 mps 630 mmHg 49%
    09:00 +18°C° 0 mm 2 mps 630 mmHg 42%
    10:00 +20°C° 0 mm 2 mps 631 mmHg 35%
    11:00 +23°C° 0 mm 2 mps 631 mmHg 27%
    12:00 +24°C° 0 mm 2 mps 630 mmHg 26%
    13:00 +24°C° 0 mm 2 mps 630 mmHg 25%
    14:00 +25°C° 0 mm 2 mps 629 mmHg 24%
    15:00 +23°C° 0 mm 2 mps 629 mmHg 29%
    16:00 +21°C° 0 mm 1 mps 628 mmHg 34%
    17:00 +19°C° 0 mm 1 mps 627 mmHg 39%
    18:00 +18°C° 0 mm 1 mps 628 mmHg 43%
    19:00 +16°C° 0 mm 1 mps 628 mmHg 47%
    20:00 +15°C° 0 mm 1 mps 628 mmHg 51%
    21:00 +14°C° 0 mm 1 mps 628 mmHg 53%
    22:00 +14°C° 0 mm 1 mps 628 mmHg 55%
    23:00 +13°C° 0 mm 1 mps 628 mmHg 56%

    22 Diciembre, Sábado

    Tiempo Temperatura Precipitaciones Viento Presión Humedad
    00:00 +13°C° 0 mm 1 mps 627 mmHg 56%
    01:00 +13°C° 0 mm 1 mps 627 mmHg 56%
    02:00 +12°C° 0 mm 1 mps 627 mmHg 56%
    03:00 +12°C° 0 mm 1 mps 627 mmHg 56%
    04:00 +12°C° 0 mm 1 mps 627 mmHg 56%
    05:00 +12°C° 0 mm 1 mps 627 mmHg 56%
    06:00 +13°C° 0 mm 1 mps 628 mmHg 50%
    07:00 +15°C° 0 mm 1 mps 629 mmHg 45%
    08:00 +18°C° 0 mm 1 mps 630 mmHg 40%
    09:00 +20°C° 0 mm 1 mps 630 mmHg 35%
    10:00 +22°C° 0 mm 1 mps 630 mmHg 30%
    11:00 +25°C° 0 mm 1 mps 630 mmHg 25%
    12:00 +25°C° 0 mm 1 mps 630 mmHg 25%
    13:00 +25°C° 0 mm 2 mps 629 mmHg 24%
    14:00 +26°C° 0 mm 2 mps 629 mmHg 24%
    15:00 +24°C° 0 mm 2 mps 628 mmHg 29%
    16:00 +22°C° 0 mm 1 mps 628 mmHg 35%
    17:00 +20°C° 0 mm 1 mps 627 mmHg 40%
    18:00 +19°C° 0 mm 1 mps 628 mmHg 43%
    19:00 +18°C° 0 mm 1 mps 628 mmHg 46%
    20:00 +16°C° 0 mm 1 mps 628 mmHg 48%
    21:00 +16°C° 0 mm 1 mps 628 mmHg 49%
    22:00 +15°C° 0 mm 1 mps 628 mmHg 50%
    23:00 +15°C° 0 mm 1 mps 628 mmHg 51%

    23 Diciembre, Domingo

    Tiempo Temperatura Precipitaciones Viento Presión Humedad
    00:00 +14°C° 0 mm 1 mps 628 mmHg 52%
    01:00 +14°C° 0 mm 1 mps 627 mmHg 52%
    02:00 +13°C° 0 mm 1 mps 627 mmHg 53%
    03:00 +13°C° 0 mm 1 mps 627 mmHg 53%
    04:00 +13°C° 0 mm 1 mps 627 mmHg 53%
    05:00 +12°C° 0 mm 1 mps 627 mmHg 53%
    06:00 +14°C° 0 mm 1 mps 628 mmHg 49%
    07:00 +15°C° 0 mm 0 mps 629 mmHg 45%
    08:00 +17°C° 0 mm 0 mps 630 mmHg 40%
    09:00 +21°C° 0 mm 1 mps 630 mmHg 36%
    10:00 +23°C° 0 mm 1 mps 630 mmHg 31%
    11:00 +25°C° 0 mm 1 mps 630 mmHg 26%
    12:00 +25°C° 0 mm 1 mps 630 mmHg 25%
    13:00 +26°C° 0 mm 2 mps 629 mmHg 24%
    14:00 +26°C° 0 mm 2 mps 628 mmHg 23%
    15:00 +24°C° 0 mm 2 mps 628 mmHg 28%
    16:00 +22°C° 0 mm 1 mps 628 mmHg 33%
    17:00 +20°C° 0 mm 1 mps 627 mmHg 38%
    18:00 +19°C° 0 mm 1 mps 628 mmHg 40%
    19:00 +18°C° 0 mm 1 mps 628 mmHg 41%
    20:00 +16°C° 0 mm 1 mps 629 mmHg 43%
    21:00 +16°C° 0 mm 1 mps 628 mmHg 45%
    22:00 +15°C° 0 mm 2 mps 628 mmHg 47%
    23:00 +15°C° 0 mm 2 mps 628 mmHg 49%

    24 Diciembre, Lunes

    Tiempo Temperatura Precipitaciones Viento Presión Humedad
    00:00 +14°C° 0 mm 2 mps 628 mmHg 53%
    01:00 +14°C° 0 mm 2 mps 628 mmHg 56%
    02:00 +13°C° 0 mm 2 mps 627 mmHg 59%
    03:00 +13°C° 0 mm 2 mps 627 mmHg 62%
    04:00 +13°C° 0 mm 2 mps 627 mmHg 64%
    05:00 +12°C° 0 mm 2 mps 627 mmHg 67%
    06:00 +14°C° 0 mm 2 mps 628 mmHg 62%
    07:00 +15°C° 0 mm 2 mps 629 mmHg 58%
    08:00 +17°C° 0 mm 2 mps 630 mmHg 54%
    09:00 +19°C° 0 mm 2 mps 630 mmHg 46%
    10:00 +21°C° 0 mm 2 mps 630 mmHg 37%
    11:00 +24°C° 0 mm 2 mps 630 mmHg 29%
    12:00 +24°C° 0 mm 2 mps 630 mmHg 27%
    13:00 +25°C° 0 mm 3 mps 629 mmHg 26%
    14:00 +25°C° 0 mm 3 mps 628 mmHg 24%
    15:00 +23°C° 0 mm 2 mps 628 mmHg 28%
    16:00 +21°C° 0 mm 2 mps 628 mmHg 33%
    17:00 +19°C° 0 mm 2 mps 627 mmHg 37%
    18:00 +18°C° 0 mm 2 mps 627 mmHg 42%
    19:00 +17°C° 0 mm 2 mps 628 mmHg 46%
    20:00 +16°C° 0 mm 1 mps 628 mmHg 51%
    21:00 +16°C° 0 mm 1 mps 628 mmHg 53%
    22:00 +15°C° 0 mm 1 mps 627 mmHg 56%
    23:00 +14°C° 0 mm 1 mps 627 mmHg 59%
    Mostrar más